When you browse on this site, cookies collect data to enhance your experience and personalize the content and advertising you see.
Visit our Privacy Policy to learn more. By continuing to use the site, you agree to this use of cookies and data.
  • Em Portugal
  • Lista de países
  • Para 7 dias
  • Temperatura da água
  • Mapa do tempo
  • Widgets de tempo
  • user-avatar
    Iniciar Sessão

    Previsão horária em Carryduff

    Hoje, 2 Junho, Terça-feira

    Tempo Temperatura Precipitação Vento Pressão Humidade
    00:00 +13°C° 0 mm 3 m/s 765 mmHg 90%
    01:00 +13°C° 0 mm 3 m/s 765 mmHg 91%
    02:00 +12°C° 0 mm 3 m/s 765 mmHg 92%
    03:00 +12°C° 0 mm 3 m/s 765 mmHg 93%
    04:00 +13°C° 0 mm 3 m/s 764 mmHg 91%
    05:00 +13°C° 0 mm 3 m/s 764 mmHg 89%
    06:00 +15°C° 0 mm 2 m/s 764 mmHg 87%
    07:00 +16°C° 0 mm 2 m/s 764 mmHg 80%
    08:00 +18°C° 0 mm 2 m/s 764 mmHg 74%
    09:00 +20°C° 0 mm 2 m/s 764 mmHg 68%
    10:00 +20°C° 0 mm 2 m/s 764 mmHg 67%
    11:00 +21°C° 0 mm 2 m/s 764 mmHg 66%
    12:00 +23°C° 0 mm 2 m/s 763 mmHg 64%
    13:00 +23°C° 0.1 mm 2 m/s 763 mmHg 65%
    14:00 +23°C° 0.1 mm 2 m/s 762 mmHg 66%
    15:00 +22°C° 0.1 mm 3 m/s 762 mmHg 67%
    16:00 +21°C° 0.1 mm 3 m/s 761 mmHg 70%
    17:00 +21°C° 0.1 mm 3 m/s 761 mmHg 72%
    18:00 +21°C° 0.1 mm 4 m/s 760 mmHg 74%
    19:00 +19°C° 0.1 mm 3 m/s 760 mmHg 77%
    20:00 +18°C° 0.1 mm 3 m/s 760 mmHg 79%
    21:00 +16°C° 0.1 mm 3 m/s 759 mmHg 81%
    22:00 +16°C° 0.1 mm 3 m/s 759 mmHg 79%
    23:00 +14°C° 0.1 mm 3 m/s 759 mmHg 77%

    Amanhã, 3 Junho, Quarta-feira

    Tempo Temperatura Precipitação Vento Pressão Humidade
    00:00 +14°C° 0.1 mm 3 m/s 758 mmHg 75%
    01:00 +14°C° 0.1 mm 2 m/s 757 mmHg 77%
    02:00 +14°C° 0.1 mm 2 m/s 757 mmHg 79%
    03:00 +13°C° 0.1 mm 2 m/s 756 mmHg 80%
    04:00 +14°C° 0.1 mm 2 m/s 756 mmHg 82%
    05:00 +14°C° 0.1 mm 2 m/s 755 mmHg 84%
    06:00 +15°C° 0.1 mm 2 m/s 755 mmHg 85%
    07:00 +14°C° 0.8 mm 2 m/s 755 mmHg 88%
    08:00 +14°C° 0.8 mm 2 m/s 755 mmHg 91%
    09:00 +14°C° 0.8 mm 2 m/s 754 mmHg 94%
    10:00 +14°C° 1.1 mm 2 m/s 754 mmHg 94%
    11:00 +13°C° 1.1 mm 3 m/s 754 mmHg 93%
    12:00 +13°C° 1.1 mm 3 m/s 754 mmHg 93%
    13:00 +13°C° 0.5 mm 5 m/s 754 mmHg 92%
    14:00 +13°C° 0.5 mm 6 m/s 754 mmHg 90%
    15:00 +12°C° 0.5 mm 7 m/s 754 mmHg 89%
    16:00 +12°C° 0 mm 7 m/s 754 mmHg 86%
    17:00 +12°C° 0 mm 7 m/s 754 mmHg 84%
    18:00 +12°C° 0 mm 7 m/s 754 mmHg 81%
    19:00 +11°C° 0 mm 7 m/s 754 mmHg 82%
    20:00 +11°C° 0 mm 6 m/s 755 mmHg 83%
    21:00 +11°C° 0 mm 6 m/s 755 mmHg 84%
    22:00 +10°C° 0 mm 5 m/s 755 mmHg 86%
    23:00 +9°C° 0 mm 5 m/s 755 mmHg 88%

    Depois de amanhã, 4 Junho, Quinta-feira

    Tempo Temperatura Precipitação Vento Pressão Humidade
    00:00 +9°C° 0 mm 5 m/s 755 mmHg 90%
    01:00 +8°C° 0 mm 4 m/s 755 mmHg 91%
    02:00 +8°C° 0 mm 4 m/s 754 mmHg 92%
    03:00 +7°C° 0 mm 4 m/s 754 mmHg 94%
    04:00 +8°C° 0 mm 4 m/s 754 mmHg 91%
    05:00 +10°C° 0 mm 4 m/s 754 mmHg 88%
    06:00 +10°C° 0 mm 4 m/s 754 mmHg 85%
    07:00 +11°C° 0 mm 3 m/s 753 mmHg 80%
    08:00 +12°C° 0 mm 3 m/s 753 mmHg 75%
    09:00 +13°C° 0 mm 3 m/s 753 mmHg 70%
    10:00 +14°C° 0.1 mm 4 m/s 753 mmHg 68%
    11:00 +14°C° 0.1 mm 5 m/s 753 mmHg 66%
    12:00 +14°C° 0.1 mm 6 m/s 753 mmHg 65%
    13:00 +14°C° 0 mm 7 m/s 752 mmHg 65%
    14:00 +14°C° 0 mm 7 m/s 752 mmHg 65%
    15:00 +14°C° 0 mm 7 m/s 751 mmHg 65%
    16:00 +14°C° 0.1 mm 7 m/s 751 mmHg 68%
    17:00 +14°C° 0.1 mm 7 m/s 751 mmHg 71%
    18:00 +12°C° 0.1 mm 7 m/s 750 mmHg 74%
    19:00 +11°C° 0 mm 7 m/s 750 mmHg 79%
    20:00 +11°C° 0 mm 6 m/s 750 mmHg 84%
    21:00 +10°C° 0 mm 5 m/s 750 mmHg 89%
    22:00 +9°C° 0.1 mm 5 m/s 750 mmHg 90%
    23:00 +8°C° 0.1 mm 5 m/s 750 mmHg 90%

    5 Junho, Sexta-feira

    Tempo Temperatura Precipitação Vento Pressão Humidade
    00:00 +8°C° 0.1 mm 4 m/s 750 mmHg 91%
    01:00 +7°C° 0 mm 4 m/s 750 mmHg 91%
    02:00 +7°C° 0 mm 5 m/s 750 mmHg 91%
    03:00 +6°C° 0 mm 5 m/s 750 mmHg 92%
    04:00 +7°C° 0 mm 5 m/s 750 mmHg 89%
    05:00 +8°C° 0 mm 5 m/s 750 mmHg 86%
    06:00 +8°C° 0 mm 6 m/s 750 mmHg 84%
    07:00 +9°C° 0 mm 6 m/s 750 mmHg 78%
    08:00 +11°C° 0 mm 6 m/s 750 mmHg 73%
    09:00 +12°C° 0 mm 7 m/s 750 mmHg 67%
    10:00 +12°C° 0 mm 7 m/s 750 mmHg 65%
    11:00 +14°C° 0 mm 7 m/s 750 mmHg 62%
    12:00 +13°C° 0 mm 8 m/s 749 mmHg 60%
    13:00 +13°C° 0 mm 8 m/s 749 mmHg 64%
    14:00 +12°C° 0 mm 7 m/s 749 mmHg 68%
    15:00 +11°C° 0 mm 7 m/s 749 mmHg 71%
    16:00 +11°C° 0.1 mm 6 m/s 749 mmHg 75%
    17:00 +10°C° 0.1 mm 5 m/s 749 mmHg 79%
    18:00 +11°C° 0.1 mm 4 m/s 749 mmHg 83%
    19:00 +10°C° 0 mm 4 m/s 749 mmHg 86%
    20:00 +8°C° 0 mm 4 m/s 749 mmHg 89%
    21:00 +7°C° 0 mm 4 m/s 749 mmHg 91%
    22:00 +7°C° 0 mm 4 m/s 750 mmHg 92%
    23:00 +6°C° 0 mm 4 m/s 750 mmHg 92%

    6 Junho, Sábado

    Tempo Temperatura Precipitação Vento Pressão Humidade
    00:00 +6°C° 0 mm 4 m/s 750 mmHg 92%
    01:00 +6°C° 0 mm 5 m/s 750 mmHg 91%
    02:00 +5°C° 0 mm 5 m/s 751 mmHg 89%
    03:00 +5°C° 0 mm 5 m/s 751 mmHg 87%
    04:00 +4°C° 0 mm 6 m/s 751 mmHg 84%
    05:00 +5°C° 0 mm 6 m/s 752 mmHg 82%
    06:00 +6°C° 0 mm 7 m/s 752 mmHg 79%
    07:00 +8°C° 0 mm 7 m/s 752 mmHg 73%
    08:00 +9°C° 0 mm 8 m/s 753 mmHg 67%
    09:00 +10°C° 0 mm 8 m/s 753 mmHg 62%
    10:00 +10°C° 0.1 mm 8 m/s 753 mmHg 61%
    11:00 +10°C° 0.1 mm 8 m/s 753 mmHg 61%
    12:00 +10°C° 0.1 mm 9 m/s 754 mmHg 60%
    13:00 +10°C° 0 mm 9 m/s 754 mmHg 59%
    14:00 +10°C° 0 mm 8 m/s 754 mmHg 59%
    15:00 +11°C° 0 mm 8 m/s 754 mmHg 58%
    16:00 +10°C° 0 mm 8 m/s 754 mmHg 59%
    17:00 +10°C° 0 mm 7 m/s 754 mmHg 59%
    18:00 +10°C° 0 mm 7 m/s 754 mmHg 59%
    19:00 +9°C° 0 mm 6 m/s 754 mmHg 66%
    20:00 +7°C° 0 mm 5 m/s 754 mmHg 73%
    21:00 +6°C° 0 mm 4 m/s 755 mmHg 80%
    22:00 +6°C° 0 mm 4 m/s 755 mmHg 80%
    23:00 +5°C° 0 mm 4 m/s 755 mmHg 81%

    7 Junho, Domingo

    Tempo Temperatura Precipitação Vento Pressão Humidade
    00:00 +5°C° 0 mm 4 m/s 755 mmHg 81%
    01:00 +4°C° 0 mm 4 m/s 755 mmHg 82%
    02:00 +4°C° 0 mm 4 m/s 755 mmHg 83%
    03:00 +3°C° 0 mm 5 m/s 755 mmHg 83%
    04:00 +5°C° 0 mm 5 m/s 755 mmHg 80%
    05:00 +5°C° 0 mm 6 m/s 755 mmHg 77%
    06:00 +7°C° 0 mm 6 m/s 756 mmHg 74%
    07:00 +8°C° 0 mm 7 m/s 756 mmHg 70%
    08:00 +9°C° 0 mm 7 m/s 756 mmHg 66%
    09:00 +11°C° 0 mm 8 m/s 756 mmHg 62%
    10:00 +11°C° 0.1 mm 8 m/s 757 mmHg 62%
    11:00 +12°C° 0.1 mm 8 m/s 757 mmHg 63%
    12:00 +12°C° 0.1 mm 8 m/s 757 mmHg 64%
    13:00 +12°C° 0.1 mm 8 m/s 757 mmHg 64%
    14:00 +12°C° 0.1 mm 8 m/s 757 mmHg 63%
    15:00 +13°C° 0.1 mm 8 m/s 756 mmHg 63%
    16:00 +12°C° 0.1 mm 8 m/s 756 mmHg 64%
    17:00 +12°C° 0.1 mm 8 m/s 756 mmHg 64%
    18:00 +11°C° 0.1 mm 8 m/s 756 mmHg 65%
    19:00 +10°C° 0 mm 7 m/s 757 mmHg 72%
    20:00 +9°C° 0 mm 7 m/s 757 mmHg 78%
    21:00 +8°C° 0 mm 6 m/s 757 mmHg 85%
    22:00 +8°C° 0.1 mm 6 m/s 757 mmHg 86%
    23:00 +8°C° 0.1 mm 6 m/s 757 mmHg 88%
    Mostrar mais